Погода в Аральске

Погода в Аральске : погода сейчас, прогноз погоды и архив. Всё, что Вы хотите узнать о погоде в Аральске!

Хотите узнать прогноз погоды в Аральске? Тогда Вам сюда: Погода в Аральске

Поиск расширенной информации на нашем сайте:

Другие новости

Новости СМИ2

Главная страница сайта

Новости сайта

02.10.2013

Напоминаем, что на нашем новом сайте вы можете получить высокодетализированные прогнозы погоды по пунктам России, СНГ и мира (включающие важные для авиации метеовеличины, такие как направление и скорость ветра, видимость, явления погоды, количество и форма облачности, нижняя и верхняя граница облачности), а также ознакомиться с разнообразными материалами по авиационной метеорологии и подборкой полезных ссылок на эту тему.

Сайт Метеоцентр.Азия посвящён разработке технологий оптимизации авиаметеорологического обслуживания, включая проектирование и перспективное создание нескольких автоматизированных авиаметеорологических систем:
- система выпуска высокодетальных прогностических карт явлений погоды для нижнего воздушного пространства по России и ближнему зарубежью;
- система верификации прогнозов TAF (выпускаемых синоптиками официальных АМСГ РФ и ближнего зарубежья) и AUTOTAF (выпускаемых сайтом Метеоцентр.Азия) - выявление ошибок, онлайн-сопоставление с фактической погодой METAR, автоматическое внесение коррективов в прогнозы при резком отклонении фактической погоды от прогноза, подсчёт оправдываемости прогнозов по элементам и в целом;
- система обработки, анализа и отображения авиаметеорологической информации для применения провайдерами метеорологической информации.


Погода в Аральске - сегодня

Время (UTC), дата Ветер
(°,м/с) 
Видим.   Явления Облачность Т
(°С)
Тd
(°С)
f(%) Тe
(°С)
Pmin
(гПа)
dP
(гПа)
Po
(мм)
O2
(г/м3)
Тmin Tmax R s Состояние
почвы
03 25.06.17 020 (С) 20000 м    3/0 верхняя 
[Ci sp]
+23.1 +7.1 36 +23  1008.4  0.2  752  278           
06 25.06.17 340 (С) 20000 м    1/0 верхняя 
[Ci sp]
+30.4 +5 20 +30  1008  -0.3  752  272  +18.2         
09 25.06.17 260 (З) 20000 м    ясно 
+32.6 +3.8 16 +33  1007.3  -0.6  751  270           
12 25.06.17 230 (ЮЗ) 20000 м    3/3 1000 м 
[Cu hum]
+33.8 +3.4 15 +34  1006.5  -0.8  750  269           
15 25.06.17 230 (ЮЗ) 20000 м    6/0 верхняя 
[Ci sp]
+30.7 +7.1 23 +31  1006.7  0.1  751  271    +35       
18 25.06.17 360 (С) н/о    5/0 средняя, верхняя 
[Ac cuf|Ci sp]
+27.3 +7.6 29 +27  1007.6  0.9  751  274    +35       
21 25.06.17 030 (СВ) н/о    5/0 средняя 
[Ac und]
+24.7 +9.3 38 +25  1007.9  0.2  751  276           
00 26.06.17 040 (СВ) 20000 м    8/3 600 м кучево-дожд., средняя 
[Cb calv|Ac und]
+22.5 +8.9 42 +23  1008  0.1  751  278           
03 26.06.17 020 (С) 20000 м    8/3 600 м кучево-дожд., средняя, верхняя 
[Cb calv|Ac und|Ci fib]
+24 +11.9 47 +28  1008.9  0.9  752  276           
06 26.06.17 020 (С) 4{15}  4000 м  гроза, ливневой дождь  10/8 600 м кучево-дожд., средняя 
[Cb cap|Ac As]
+18.6 +12.9 69 +24  1012.6  3.5  755  282  +21.5         
09 26.06.17 360 (С) 20000 м  {гроза, ливн. осадки}  9/3 600 м кучево-дожд., средняя 
[Cb calv|Ac cuf]
+18.4 +13.3 72 +24  1012.2  -0.4  754  282           
12 26.06.17 360 (С) 20000 м  {гроза, ливн. осадки}  8/3 600 м кучево-дожд., средняя, верхняя 
[Cb calv|Ac cuf|Ci fib]
+22.9 +8.9 41 +23  1012.7  0.6  755  279           
15 26.06.17 020 (С) 20000 м    1/0 средняя 
[Ac cuf]
+23.4 +7.8 37 +23  1013.2  0.5  755  279    +25     
18 26.06.17 320 (СЗ) н/о    ясно 
+17 +12.1 73 +22  1014.6  1.3  756  285    +25     
21 26.06.17 310 (СЗ) н/о    ясно 
+16.6 +10.9 69 +19  1015.4  0.8  757  285           
00 27.06.17 320 (СЗ) 20000 м    ясно 
+14.8 +10.3 74 +16  1016.7  1.2  758  288           
03 27.06.17 350 (С) 20000 м    ясно 
+20 +9 49 +20  1018.1  1.5  759  283  +14.5        сухая 
06 27.06.17 340 (С) 20000 м    ясно 
+25.8 +6.2 29 +26  1018.8  0.8  759  279  +14.5         
09 27.06.17 340 (С) 20000 м    ясно 
+28.4 +5 23 +28  1017.3  -1.4  758  276           
12 27.06.17 330 (СЗ) 20000 м    ясно 
+30.4 +2.5 17 +30  1016.5  -0.8  758  274           
15 27.06.17 350 (С) 20000 м    ясно 
+29.8 +3.8 19 +30  1016.5  758  275    +31.2       
18 27.06.17 тихо ()   н/о    ясно 
+24.2 +6.4 32 +24  1017.1  0.5  758  280    +31.2       
21 27.06.17 240 (ЮЗ) н/о    ясно 
+18.4 +12.9 70 +25  1017.3  0.1  758  284           
00 28.06.17 тихо ()   20000 м    ясно 
+16.2 +12 76 +20  1017.8  0.5  759  286           
03 28.06.17 тихо ()   20000 м    3/0 верхняя 
[Ci fib]
+23.3 +11.4 47 +26  1018.2  0.5  759  280  +15.3        сухая 
Время (UTC), дата Ветер
(°,м/с) 
Видим.   Явления Облачность Т
(°С)
Тd
(°С)
f(%) Тe
(°С)
Pmin
(гПа)
dP
(гПа)
Po
(мм)
O2
(г/м3)
Тmin Tmax R s Состояние
почвы

Для получения пояснительной информации подведите курсор к названию столбца.

ПОГОДА в Аральске - архив

Всё, что Вы хотите узнать о погоде в Аральске - удобно и подробно!

Выберите нужную дату (начиная с 1 января 2015* года) и нажмите кнопку "Найти".
Будут отображены архивные сводки погоды по пункту Аральск, начиная с указанной даты.


Отображать данные в формате CSV (для использования в таблицах Excel)


Внимание! Наш архив погоды предназначен исключительно для личного некоммерческого использования в познавательных целях. Если Вам необходимы официальные справки о состоянии погоды (для производственных, юридических, коммерческих и т.п. целей), обращайтесь в органы Росгидромета.

*Примечание: данная дата относится к архиву по метеостанциям СССР (Россия, СНГ, Балтия).
Архив по метеостанциям Зарубежной Европы и Азии (кроме Китая) хранится 10 дней, по другим регионам земного шара (Китай, Африка, Америка, Австралия, Океания) - 1 день.

Аральск - район местоположения метеостанции


Название, широта, долгота, высота метеостанции:
Аральск 46.8°ш. 61.6°д. 62 м над ур. моря [Казахстан]

Дополнительная информация

В oтличие oт бoльшинства пoгoдных сайтoв мы публикуем пoдрoбную метеoинфoрмацию в детальнoм прoфессиoнальнoм фoрмате.

Характеристики температуры и влажнoсти вoздуха измеряются на высoте 2 м в тени вдали oт зданий и деревьев.
Скoрoсть ветра измеряется на высoте 10 м (на урoвне рoста челoвека скoрoсть ветра ниже в 1.5-2 раза). Если метеoстанция нахoдится в гoрoде или в лесу, тo скoрoсть ветра занижена на 2-4 м/с пo сравнению с oткрытым местoм. Скoрoсть ветра над акватoриями крупных рек и oзёр, а также на вершинах хoлмoв на 2-5 м/с выше, чем в oбычных услoвиях.
Атмoсфернoе давление в разных тoчках местнoсти мoжет значительнo oтличаться oт давления на метеoстанции, в зависимoсти oт услoвий рельефа (при пoдъёме на 10 м давление пoнижается примернo на 1 мм рт.ст.).